Showing default

KUIPER-00170, 65783

Orbit data source: Space-Track

KUIPER-00170, 65783 is a payload satellite owned by Kuiper Systems (US) in LEO that was launched on Thu, 25 Sep 2025 UTC via an ATLAS V 551 launch vehicle from the Air Force Eastern Test Range (AFETR). Payload-class satellites include a variety of spacecraft equipped with specific instruments for various scientific and technological missions. These include communications satellites like Starlink; space stations such as the ISS; scientific satellites like the Hubble; Earth observation satellites from companies like Planet Labs, Umbra, and HawkEye 360; GPS; miniature CubeSats for education and research; and military/defense satellites.

Loading next visibility...
Identifier
65783, 2025-217X
Orbit
LEO
Country
Flag of USUS
Related business
Manufacturer
Kuiper Systems
Mission
Operational Commercial Communications
Bus & Motor
KUIPER, Unknown motor
Mass
~490 kg wet, ~490 kg dry
Launch date (UTC)
2025-09-25 (9 months ago)
Launch vehicle
ATLAS V 551
Launch site
Air Force Eastern Test Range (AFETR)
Object type
Payload
Rocket body
Debris
Shape & HBR
Box + 2 Pan, 3.4 m
Radar Cross Section
2.326 m², Large (>1 m²)

Expand to show TLE details & history
Last TLE update: 1 day ago

TLE from 1 day ago
0 KUIPER-00170
1 65783U 25217X   26170.69248722  .00002911  00000-0  41073-3 0  9993
2 65783  51.8990 307.0229 0000516 104.1593 255.9427 14.79931561 40050
Epoch: 2026-06-19T16:37Z
TLE epoch observation values (Epoch: 2026-06-19T16:37:10.895Z)
Latitude
-0.00001°
Longitude
149.80968°
Altitude
630.375 km
Speed
7.544 km/s
True Right ascension
20h 28m 05s
True Declination
0° 00' 00"
Sunlit
Object was in full shadow at epoch
Visualization orbit readout
Latitude
Unknown
Longitude
Unknown
Altitude
Unknown
Speed
Unknown
Apparent Right ascension
Unknown
Apparent Declination
Unknown
Sunlit
N/A
Visualization observer readout
Local Sidereal Time
07:14:20
Azimuth
Unknown
Elevation
Unknown
Doppler factor
Unknown
Orbital elements
Apogee altitude
630.353 km
Perigee altitude
629.63 km
Semi-major axis
7,008.128 km
Eccentricity
0.00005
Inclination
51.899°
RAAN
307.0229°
Arg. of periapsis
104.1593°
True anomaly
255.93696°
Mean anomaly
255.9427°
Eccentric anomaly
255.93983°
Mean motion
3.69947 °/min
Orbital period
97.31 mins
BSTAR
0.00041073
Loading maneuver chart data...
Computing Atmospheric mass density...
Loading historical data...
Loading historical data...
Loading historical data...
Loading historical data...
Loading historical data...
Loading historical data...
Loading historical data...

Documentation

Showing up to 5 results
|